Regional Weather Roundup
Issued by NWS

Home | Current Version | Previous Version | Graphics & Text | Print | Product List | Glossary On
Versions: 1 2 3 4 5 6 7 8 9 10 11 12 13 14 15 16 17 18 19 20 21 22 23 24 25 26 27 28 29 30 31 32 33 34 35 36 37 38 39 40 41 42 43 44 45 46 47 48 49 50
000
ASUS43 KLOT 180606
RWRIL

ILLINOIS REGIONAL WEATHER ROUNDUP
NATIONAL WEATHER SERVICE CHICAGO/ROMEOVILLE IL
100 AM CDT THU SEP 18 2014

NOTE: "FAIR" INDICATES FEW OR NO CLOUDS BELOW 12,000 FEET WITH NO
SIGNIFICANT WEATHER AND/OR OBSTRUCTIONS TO VISIBILITY.

* THESE STATIONS ARE NOT UNDER NWS QUALITY CONTROL. THEY ALSO MAY NOT
  REPORT WEATHER SUCH AS PRECIPITATION OR FOG.

ILZ001-002-007-009-015-016-024-180700-
NORTHWEST ILLINOIS

CITY           SKY/WX    TMP DP  RH WIND       PRES   REMARKS
MOLINE         CLEAR     49  48  97 CALM      30.04R
6HR MIN TEMP:  49; 6HR MAX TEMP:  63;

STERLING*      CLEAR     46  45  93 CALM      30.04S
SAVANNA*       PTCLDY    48  47  94 CALM      30.04S FOG
$$

ILZ003-004-008-010-011-017-018-180700-
NORTH CENTRAL ILLINOIS

CITY           SKY/WX    TMP DP  RH WIND       PRES   REMARKS
ROCKFORD       CLEAR     51  48  89 CALM      30.06S
6HR MIN TEMP:  51; 6HR MAX TEMP:  66;

FREEPORT*      CLEAR     47  45  95 CALM      30.06S
ROCHELLE*      CLEAR     47  46  94 CALM      30.05R
DE KALB*       CLEAR     52  47  81 SE3       30.05S
PERU*          CLEAR     53  50  89 E5        30.05S
$$

ILZ005-006-012>014-019>023-180700-
NORTHEAST ILLINOIS

CITY           SKY/WX    TMP DP  RH WIND       PRES   REMARKS
CHICAGO-OHARE  CLEAR     56  48  74 CALM      30.04R
6HR MIN TEMP:  56; 6HR MAX TEMP:  66;

CHICAGO-MIDWAY CLEAR     59  51  75 CALM      30.04R
6HR MIN TEMP:  58; 6HR MAX TEMP:  65;

AURORA         CLEAR     48  44  86 CALM      30.05R
6HR MIN TEMP:  47; 6HR MAX TEMP:  65;

LANSING*       CLEAR     49  48  96 CALM      30.04S
JOLIET*        CLEAR     48  47  95 CALM      30.05S FOG
WAUKEGAN       CLEAR     47  45  93 CALM      30.04R FOG
6HR MIN TEMP:  47; 6HR MAX TEMP:  59;

DUPAGE AIRPORT CLEAR     51  47  86 CALM      30.04S
6HR MIN TEMP:  50; 6HR MAX TEMP:  65;

KANKAKEE*      CLEAR     50  49  95 CALM      30.05S
WHEELING       CLEAR     52  48  86 CALM      30.06R
6HR MIN TEMP:  52; 6HR MAX TEMP:  63;

MORRIS*        CLEAR     50  50  99 CALM      30.04S
ROMEOVILLE*    CLEAR     51  49  92 S3        30.04S
NORTHERLY ISL    N/A     60  52  74 S2          N/A
$$

LMZ740>746-180700-
SOUTHERN LAKE MICHIGAN

STATION/POSITION SKY/WX   TEMP    WIND        PRES    VSBY  WAVE
                          AIR SEA DIR/SP/G                  HT/PER
                          (F)     (DEG/KT/KT) (MB)    (MI)  (FT/S)
SOUTHERN BUOY              63 65  220/  6/  8 1017.3R         0
WAUKEGAN HARBOR            57     250/  4/  4   N/A
HARRISON CRIB              61     190/  6/  7   N/A
BURNHAM HARBOR             60     180/  2/  3   N/A
CALUMET HARBOR             58     210/  1/  2 1016.0R
MICHIGAN CITY              54     110/  6/  8   N/A
MICHIGAN CITY 6N           59 64  140/  4/  6   N/A           0
ST. JOSEPH                 62 67   90/  4/  6   N/A           0
$$

ILZ025>027-034>036-040-047-049-050-058-095>099-180700-
WEST-CENTRAL ILLINOIS

CITY           SKY/WX    TMP DP  RH WIND       PRES   REMARKS
QUINCY         FOG       52  51  97 NE5       30.01S VSB 1
GALESBURG*     CLEAR     47  46  94 CALM      30.03S FOG
MACOMB*        CLEAR     46  46 100 CALM      30.05S FOG
JACKSONVILLE*  CLEAR     51  50  97 E3        30.03S FOG
PITTSFIELD*      N/A     53  51  92 CALM      30.03S FOG
$$

ILZ028>032-037-038-041>044-048-051>054-059>061-180700-
CENTRAL ILLINOIS

CITY           SKY/WX    TMP DP  RH WIND       PRES   REMARKS
PONTIAC        CLEAR     52  52 100 CALM      30.04R
DECATUR        CLOUDY    54  52  93 CALM      30.04R
PEORIA         CLEAR     55  51  86 CALM      30.03S
6HR MIN TEMP:  53; 6HR MAX TEMP:  64;

LACON*         FOG       50  49  96 CALM      30.03S VSB 1/4
LINCOLN*       CLEAR     52  50  93 CALM      30.02S
SPRINGFIELD    CLEAR     51  49  92 CALM      30.03S
6HR MIN TEMP:  51; 6HR MAX TEMP:  62;

TAYLORVILLE    PTCLDY    52  52 100 CALM      30.02F FOG
$$

ILZ033-039-045-046-055>057-062-063-180700-
EAST-CENTRAL ILLINOIS

CITY           SKY/WX    TMP DP  RH WIND       PRES   REMARKS
CHAMPAIGN      CLOUDY    54  52  93 NW5       30.04S
DANVILLE*      PTCLDY    51  50  94 CALM      30.01S
MATTOON        MOCLDY    54  52  93 CALM      30.03R
PARIS*         CLOUDY    51  51  99 CALM      30.05R
$$

ILZ079-100>102-180700-
SOUTHWEST ILLINOIS

CITY           SKY/WX    TMP DP  RH WIND       PRES   REMARKS
ALTON          CLOUDY    60  57  89 E5        30.01S
BELLEVILLE     CLOUDY    61  59  95 N1        30.00S
CAHOKIA*       CLOUDY    62  57  83 E3        30.00S
SPARTA*        CLOUDY    60  59  96 CALM      30.01S
$$

ILZ064>066-069>071-074>076-080>082-084>086-088>090-092>094-180700-
SOUTH-CENTRAL ILLINOIS

CITY           SKY/WX    TMP DP  RH WIND       PRES   REMARKS
CARBONDALE     CLOUDY    62  59  90 CALM      29.99F
6HR MIN TEMP:  59; 6HR MAX TEMP:  65;

CAIRO*         PTCLDY    60  57  91 CALM      29.97S FOG
EFFINGHAM*     CLEAR     55  53  91 CALM      30.02S FOG
MARION         CLOUDY    61  59  94 CALM      30.00S
MT. VERNON     CLOUDY    61  54  77 NE3       30.01S
CENTRALIA*     CLOUDY    60  55  83 NE3       30.01S
SALEM*         CLOUDY    62  58  88 CALM      30.02R
METROPOLIS*    CLOUDY    60  60 100 CALM      29.97S
$$

ILZ067-068-072-073-078-083-087-091-180700-
SOUTHEAST ILLINOIS

CITY           SKY/WX    TMP DP  RH WIND       PRES   REMARKS
LAWRENCEVILLE  MOCLDY    56  54  93 CALM      30.02S
FLORA*         CLEAR     60  56  85 NE5       30.02S
FAIRFIELD*     CLOUDY   N/A N/A N/A N3        30.00S
HARRISBURG*    CLOUDY    62  60  96 CALM      30.00S
ROBINSON*      CLOUDY    55  55  99 CALM      30.04S FOG
CARMI*         CLOUDY    63  58  83 CALM      30.00S
$$

ABBREVIATIONS USED IN REMARKS
   TC - TEMPERATURE IN CELSIUS
  WCI - WIND CHILL INDEX
   HX - HEAT INDEX
  VSB - VISIBILITY
$$



USA.gov is the U.S. government's official web portal to all federal, state and local government web resources and services.